STARLINK-33956, 63927

Orbit data source: Space-Track

STARLINK-33956, 63927 is a payload satellite owned by SpaceX/Seattle (US) in LEO that was launched on Tue, 13 May 2025 UTC via an FALCON 9 launch vehicle from the Air Force Western Test Range (AFWTR). Payload-class satellites include a variety of spacecraft equipped with specific instruments for various scientific and technological missions. These include communications satellites like Starlink; space stations such as the ISS; scientific satellites like the Hubble; Earth observation satellites from companies like Planet Labs, Umbra, and HawkEye 360; GPS; miniature CubeSats for education and research; and military/defense satellites.

Loading next visibility...
Identifier
63927, 2025-098B
Orbit
LEO
Country
Flag of USUS
Related business
Manufacturer
SpaceX/Seattle
Mission
Operational Commercial Communications
Bus & Motor
STARLINK V2MO, Unknown motor
Mass
575 kg wet, ~530 kg dry
Launch date (UTC)
2025-05-13 (7 months ago)
Launch vehicle
FALCON 9
Launch site
Air Force Western Test Range (AFWTR)
Object type
Payload
Rocket body
Debris
Shape & HBR
Box + 2 Pan, 17.7 m
Radar Cross Section
36.964 m², Large (>1 m²)

Expand to show TLE details & history
Last TLE update: 9 hours ago

TLE from 9 hours ago
0 STARLINK-33956
1 63927U 25098B   25349.82146753  .00006038  00000-0  51321-3 0  9992
2 63927  70.0004 125.7609 0002939 266.2645  93.8179 14.98343619 34017
Epoch: 2025-12-15T19:42Z
TLE epoch observation values (Epoch: 2025-12-15T19:42:54.794Z)
Latitude
0.00006°
Longitude
105.31808°
Altitude
574.574 km
Speed
7.574 km/s
True Right ascension
08h 23m 02s
True Declination
0° 00' 00"
Sunlit
Object was in full shadow at epoch
Visualization orbit readout
Latitude
Unknown
Longitude
Unknown
Altitude
Unknown
Speed
Unknown
Apparent Right ascension
Unknown
Apparent Declination
Unknown
Sunlit
N/A
Visualization observer readout
Local Sidereal Time
03:10:34
Azimuth
Unknown
Elevation
Unknown
Doppler factor
Unknown
Orbital elements
Apogee altitude
572.004 km
Perigee altitude
567.92 km
Semi-major axis
6,948.099 km
Eccentricity
0.00029
Inclination
70.0004°
RAAN
125.7609°
Arg. of periapsis
266.2645°
True anomaly
93.8515°
Mean anomaly
93.8179°
Eccentric anomaly
93.8347°
Mean motion
3.74752 °/min
Orbital period
96.06 mins
BSTAR
0.00051321
Loading maneuver chart data...
Computing Atmospheric mass density...
Loading historical data...
Loading historical data...
Loading historical data...
Loading historical data...
Loading historical data...
Loading historical data...
Loading historical data...

Documentation

Showing up to 5 results
|